Weather History for Ellsworth AFB, SD

Change the Weather History Date:

Wednesday, February 13, 2013

  Actual Average Record
Temperature  
Mean Temperature 38 °F -  
Max Temperature 49 °F 38 °F 66 °F (1999)
Min Temperature 28 °F 18 °F -11 °F (2007)
Degree Days  
Heating Degree Days 26    
Moisture  
Dew Point 24 °F    
Average Humidity 59    
Maximum Humidity 85    
Minimum Humidity 35    
Precipitation  
Precipitation 0.00 in - - ()
Sea Level Pressure  
Sea Level Pressure 29.86 in    
Wind  
Wind Speed 17 mph (WNW)    
Max Wind Speed 37 mph    
Max Gust Speed 43 mph    
Visibility 10 miles    
Events Rain    
Averages and records for this station are not official NWS values.
T = Trace of Precipitation, MM = Missing Value Source: NWS Daily Summary

Daily Weather History Graph

Daily Weather History Graph

Search for Another Location

Airport:

Trip Planner

Search our weather history database for the weather conditions in past years. The results will help you decide how hot, cold, wet, or windy it might be!

Date:

Astronomy

Feb. 13, 2013 Rise Set
Actual Time 6:54 AM MST 5:19 PM MST
Civil Twilight 6:24 AM MST 5:49 PM MST
Nautical Twilight 5:50 AM MST 6:23 PM MST
Astronomical Twilight 5:17 AM MST 6:56 PM MST
Moon 8:14 AM MST (2/13) 9:36 PM MST (2/13)
Length of Visible Light 11h 24m
Length of Day
10h 25m
Waxing Crescent, 14% of the Moon is Illuminated
Feb 13
Waxing Crescent
Feb 17
First Quarter
Feb 25
Full
Mar 4
Last Quarter
Mar 11
New

Hourly Weather History & Observations

Time (MST) Temp. Windchill Dew Point Humidity Pressure Visibility Wind Dir Wind Speed Gust Speed Precip Events Conditions
12:55 AM 31.5 °F 22.9 °F 20.5 °F 64% 29.90 in 10.0 mi West 10.4 mph - N/A   Clear
1:55 AM 31.8 °F 22.8 °F 19.9 °F 62% 29.88 in 10.0 mi WSW 11.5 mph - N/A   Clear
2:55 AM 29.3 °F 20.8 °F 19.6 °F 67% 29.86 in 10.0 mi WSW 9.2 mph - N/A   Clear
3:55 AM 29.1 °F 21.3 °F 19.8 °F 68% 29.85 in 10.0 mi SW 8.1 mph - N/A   Clear
4:55 AM 29.8 °F 21.5 °F 20.8 °F 69% 29.85 in 10.0 mi WSW 9.2 mph - N/A   Clear
5:55 AM 28.0 °F 20.8 °F 19.4 °F 70% 29.83 in 10.0 mi West 6.9 mph - N/A   Clear
6:55 AM 33.4 °F 25.9 °F 21.9 °F 63% 29.82 in 10.0 mi West 9.2 mph - N/A   Mostly Cloudy
7:55 AM 40.6 °F 33.8 °F 23.4 °F 50% 29.81 in 10.0 mi West 11.5 mph 20.7 mph N/A   Overcast
8:55 AM 44.2 °F 36.2 °F 21.9 °F 41% 29.80 in 10.0 mi NW 19.6 mph 23.0 mph N/A   Overcast
9:55 AM 46.9 °F - 23.0 °F 39% 29.78 in 10.0 mi NW 26.5 mph 33.4 mph N/A   Mostly Cloudy
10:55 AM 47.5 °F - 23.0 °F 38% 29.78 in 10.0 mi NW 29.9 mph 39.1 mph N/A   Partly Cloudy
11:55 AM 47.3 °F - 24.3 °F 40% 29.78 in 10.0 mi NW 31.1 mph 39.1 mph N/A   Mostly Cloudy
12:55 PM 49.3 °F - 22.6 °F 35% 29.77 in 10.0 mi WNW 29.9 mph 39.1 mph N/A   Partly Cloudy
1:55 PM 47.3 °F - 27.9 °F 47% 29.78 in 10.0 mi NNW 36.8 mph 42.6 mph N/A   Mostly Cloudy
2:55 PM 43.5 °F 33.1 °F 25.2 °F 48% 29.81 in 10.0 mi NNW 31.1 mph 42.6 mph N/A   Mostly Cloudy
3:55 PM 41.9 °F 31.3 °F 25.3 °F 52% 29.83 in 10.0 mi NW 28.8 mph 36.8 mph N/A   Clear
4:55 PM 40.6 °F 30.7 °F 25.7 °F 55% 29.86 in 10.0 mi NW 23.0 mph 32.2 mph N/A   Clear
5:55 PM 39.6 °F 29.2 °F 25.3 °F 57% 29.90 in 10.0 mi NW 23.0 mph - N/A   Partly Cloudy
6:34 PM 37.4 °F 25.4 °F 26.6 °F 65% 29.94 in 10.0 mi North 27.6 mph 35.7 mph N/A Rain Light Rain
6:50 PM 33.8 °F 23.5 °F 28.4 °F 81% 29.94 in 10.0 mi North 16.1 mph - N/A   Scattered Clouds
6:55 PM 33.4 °F 23.9 °F 29.3 °F 85% 29.94 in 10.0 mi North 13.8 mph - 0.00 in   Mostly Cloudy
7:55 PM 32.9 °F 23.7 °F 27.5 °F 81% 29.93 in 10.0 mi WNW 12.7 mph - N/A   Mostly Cloudy
8:55 PM 36.3 °F 24.9 °F 26.4 °F 67% 29.93 in 10.0 mi NW 23.0 mph 28.8 mph N/A   Clear
9:55 PM 36.3 °F 25.2 °F 23.7 °F 60% 29.94 in 10.0 mi NW 21.9 mph 36.8 mph N/A   Partly Cloudy
10:55 PM 33.4 °F 21.4 °F 23.0 °F 66% 29.96 in 10.0 mi NW 21.9 mph - N/A   Clear
11:55 PM 32.5 °F 19.9 °F 19.0 °F 58% 29.99 in 10.0 mi NW 23.0 mph - N/A   Clear